Year,Month,Day,Hour,Minute,Value (Times are PST for temperature in C)
2004,05,19,00,00,15.00
2004,05,19,00,01,14.90
2004,05,19,00,02,14.90
2004,05,19,00,03,14.80
2004,05,19,00,04,14.80
2004,05,19,00,05,14.80
2004,05,19,00,06,14.80
2004,05,19,00,07,14.80
2004,05,19,00,08,14.80
2004,05,19,00,09,14.80
2004,05,19,00,10,14.80
2004,05,19,00,11,14.80
2004,05,19,00,12,14.80
2004,05,19,00,13,14.70
2004,05,19,00,14,14.70
2004,05,19,00,15,14.60
2004,05,19,00,16,14.60
2004,05,19,00,17,14.60
2004,05,19,00,18,14.70
2004,05,19,00,19,14.70
2004,05,19,00,20,14.70
2004,05,19,00,21,14.80
2004,05,19,00,22,14.80
2004,05,19,00,23,14.80
2004,05,19,00,24,14.80
2004,05,19,00,25,14.70
2004,05,19,00,26,14.60
2004,05,19,00,27,14.50
2004,05,19,00,28,14.50
2004,05,19,00,29,14.40
2004,05,19,00,30,14.40
2004,05,19,00,31,14.40
2004,05,19,00,32,14.40
2004,05,19,00,33,14.40
2004,05,19,00,34,14.50
2004,05,19,00,35,14.50
2004,05,19,00,36,14.50
2004,05,19,00,37,14.60
2004,05,19,00,38,14.60
2004,05,19,00,39,14.60
2004,05,19,00,40,14.50
2004,05,19,00,41,14.40
2004,05,19,00,42,14.40
2004,05,19,00,43,14.40
2004,05,19,00,44,14.30
2004,05,19,00,45,14.30
2004,05,19,00,46,14.30
2004,05,19,00,47,14.30
2004,05,19,00,48,14.20
2004,05,19,00,49,14.10
2004,05,19,00,50,14.10
2004,05,19,00,51,14.00
2004,05,19,00,52,13.90
2004,05,19,00,53,13.80
2004,05,19,00,54,13.70
2004,05,19,00,55,13.70
2004,05,19,00,56,13.70
2004,05,19,00,57,13.70
2004,05,19,00,58,13.70
2004,05,19,00,59,13.70
2004,05,19,01,00,13.70
2004,05,19,01,01,13.80
2004,05,19,01,02,13.80
2004,05,19,01,03,13.80
2004,05,19,01,04,13.80
2004,05,19,01,05,13.80
2004,05,19,01,06,13.80
2004,05,19,01,07,13.80
2004,05,19,01,08,13.80
2004,05,19,01,09,13.80
2004,05,19,01,10,13.80
2004,05,19,01,11,13.80
2004,05,19,01,12,13.70
2004,05,19,01,13,13.60
2004,05,19,01,14,13.60
2004,05,19,01,15,13.50
2004,05,19,01,16,13.50
2004,05,19,01,17,13.50
2004,05,19,01,18,13.50
2004,05,19,01,19,13.40
2004,05,19,01,20,13.40
2004,05,19,01,21,13.40
2004,05,19,01,22,13.40
2004,05,19,01,23,13.30
2004,05,19,01,24,13.20
2004,05,19,01,25,13.10
2004,05,19,01,26,13.00
2004,05,19,01,27,13.10
2004,05,19,01,28,13.10
2004,05,19,01,29,13.10
2004,05,19,01,30,13.00
2004,05,19,01,31,13.00
2004,05,19,01,32,13.00
2004,05,19,01,33,13.00
2004,05,19,01,34,12.90
2004,05,19,01,35,12.80
2004,05,19,01,36,12.80
2004,05,19,01,37,12.80
2004,05,19,01,38,12.80
2004,05,19,01,39,12.70
2004,05,19,01,40,12.70
2004,05,19,01,41,12.70
2004,05,19,01,42,12.70
2004,05,19,01,43,12.60
2004,05,19,01,44,12.50
2004,05,19,01,45,12.50
2004,05,19,01,46,12.50
2004,05,19,01,47,12.50
2004,05,19,01,48,12.60
2004,05,19,01,49,12.60
2004,05,19,01,50,12.60
2004,05,19,01,51,12.60
2004,05,19,01,52,12.60
2004,05,19,01,53,12.50
2004,05,19,01,54,12.50
2004,05,19,01,55,12.40
2004,05,19,01,56,12.40
2004,05,19,01,57,12.40
2004,05,19,01,58,12.40
2004,05,19,01,59,12.40
2004,05,19,02,00,12.40
2004,05,19,02,01,12.40
2004,05,19,02,02,12.30
2004,05,19,02,03,12.30
2004,05,19,02,04,12.30
2004,05,19,02,05,12.30
2004,05,19,02,06,12.30
2004,05,19,02,07,12.40
2004,05,19,02,08,12.40
2004,05,19,02,09,12.40
2004,05,19,02,10,12.40
2004,05,19,02,11,12.40
2004,05,19,02,12,12.30
2004,05,19,02,13,12.30
2004,05,19,02,14,12.30
2004,05,19,02,15,12.20
2004,05,19,02,16,12.20
2004,05,19,02,17,12.20
2004,05,19,02,18,12.20
2004,05,19,02,19,12.20
2004,05,19,02,20,12.10
2004,05,19,02,21,12.00
2004,05,19,02,22,12.00
2004,05,19,02,23,12.00
2004,05,19,02,24,12.10
2004,05,19,02,25,12.10
2004,05,19,02,26,12.10
2004,05,19,02,27,12.20
2004,05,19,02,28,12.20
2004,05,19,02,29,12.20
2004,05,19,02,30,12.20
2004,05,19,02,31,12.10
2004,05,19,02,32,12.00
2004,05,19,02,33,12.00
2004,05,19,02,34,12.00
2004,05,19,02,35,11.90
2004,05,19,02,36,12.00
2004,05,19,02,37,12.00
2004,05,19,02,38,12.00
2004,05,19,02,39,12.00
2004,05,19,02,40,11.90
2004,05,19,02,41,11.90
2004,05,19,02,42,11.80
2004,05,19,02,43,11.90
2004,05,19,02,44,11.90
2004,05,19,02,45,11.90
2004,05,19,02,46,11.90
2004,05,19,02,47,11.90
2004,05,19,02,48,12.00
2004,05,19,02,49,11.90
2004,05,19,02,50,11.90
2004,05,19,02,51,11.80
2004,05,19,02,52,11.80
2004,05,19,02,53,11.80
2004,05,19,02,54,11.80
2004,05,19,02,55,11.80
2004,05,19,02,56,11.80
2004,05,19,02,57,11.80
2004,05,19,02,58,11.80
2004,05,19,02,59,11.80
2004,05,19,03,00,11.80
2004,05,19,03,01,11.80
2004,05,19,03,02,11.80
2004,05,19,03,03,11.80
2004,05,19,03,04,11.80
2004,05,19,03,05,11.80
2004,05,19,03,06,11.80
2004,05,19,03,07,11.80
2004,05,19,03,08,11.80
2004,05,19,03,09,11.80
2004,05,19,03,10,11.80
2004,05,19,03,11,11.70
2004,05,19,03,12,11.70
2004,05,19,03,13,11.70
2004,05,19,03,14,11.80
2004,05,19,03,15,11.80
2004,05,19,03,16,11.80
2004,05,19,03,17,11.80
2004,05,19,03,18,11.80
2004,05,19,03,19,11.80
2004,05,19,03,20,11.80
2004,05,19,03,21,11.80
2004,05,19,03,22,11.70
2004,05,19,03,23,11.80
2004,05,19,03,24,11.80
2004,05,19,03,25,11.80
2004,05,19,03,26,11.80
2004,05,19,03,27,11.80
2004,05,19,03,28,11.80
2004,05,19,03,29,11.80
2004,05,19,03,30,11.80
2004,05,19,03,31,11.70
2004,05,19,03,32,11.70
2004,05,19,03,33,11.70
2004,05,19,03,34,11.70
2004,05,19,03,35,11.70
2004,05,19,03,36,11.80
2004,05,19,03,37,11.80
2004,05,19,03,38,11.80
2004,05,19,03,39,11.80
2004,05,19,03,40,11.80
2004,05,19,03,41,11.80
2004,05,19,03,42,11.80
2004,05,19,03,43,11.80
2004,05,19,03,44,11.80
2004,05,19,03,45,11.80
2004,05,19,03,46,11.80
2004,05,19,03,47,11.80
2004,05,19,03,48,11.80
2004,05,19,03,49,11.80
2004,05,19,03,50,11.80
2004,05,19,03,51,11.80
2004,05,19,03,52,11.80
2004,05,19,03,53,11.70
2004,05,19,03,54,11.70
2004,05,19,03,55,11.60
2004,05,19,03,56,11.60
2004,05,19,03,57,11.70
2004,05,19,03,58,11.70
2004,05,19,03,59,11.70
2004,05,19,04,00,11.70
2004,05,19,04,01,11.70
2004,05,19,04,02,11.70
2004,05,19,04,03,11.70
2004,05,19,04,04,11.60
2004,05,19,04,05,11.60
2004,05,19,04,06,11.60
2004,05,19,04,07,11.60
2004,05,19,04,08,11.60
2004,05,19,04,09,11.60
2004,05,19,04,10,11.70
2004,05,19,04,11,11.70
2004,05,19,04,12,11.70
2004,05,19,04,13,11.70
2004,05,19,04,14,11.60
2004,05,19,04,15,11.60
2004,05,19,04,16,11.60
2004,05,19,04,17,11.60
2004,05,19,04,18,11.50
2004,05,19,04,19,11.60
2004,05,19,04,20,11.60
2004,05,19,04,21,11.60
2004,05,19,04,22,11.60
2004,05,19,04,23,11.60
2004,05,19,04,24,11.60
2004,05,19,04,25,11.60
2004,05,19,04,26,11.60
2004,05,19,04,27,11.60
2004,05,19,04,28,11.60
2004,05,19,04,29,11.60
2004,05,19,04,30,11.60
2004,05,19,04,31,11.60
2004,05,19,04,32,11.60
2004,05,19,04,33,11.70
2004,05,19,04,34,11.70
2004,05,19,04,35,11.60
2004,05,19,04,36,11.60
2004,05,19,04,37,11.50
2004,05,19,04,38,11.50
2004,05,19,04,39,11.60
2004,05,19,04,40,11.60
2004,05,19,04,41,11.60
2004,05,19,04,42,11.60
2004,05,19,04,43,11.60
2004,05,19,04,44,11.60
2004,05,19,04,45,11.60
2004,05,19,04,46,11.50
2004,05,19,04,47,11.40
2004,05,19,04,48,11.40
2004,05,19,04,49,11.40
2004,05,19,04,50,11.40
2004,05,19,04,51,11.40
2004,05,19,04,52,11.50
2004,05,19,04,53,11.50
2004,05,19,04,54,11.50
2004,05,19,04,55,11.40
2004,05,19,04,56,11.40
2004,05,19,04,57,11.40
2004,05,19,04,58,11.40
2004,05,19,04,59,11.40
2004,05,19,05,00,11.40
2004,05,19,05,01,11.40
2004,05,19,05,02,11.40
2004,05,19,05,03,11.50
2004,05,19,05,04,11.50
2004,05,19,05,05,11.40
2004,05,19,05,06,11.40
2004,05,19,05,07,11.30
2004,05,19,05,08,11.30
2004,05,19,05,09,11.30
2004,05,19,05,10,11.40
2004,05,19,05,11,11.40
2004,05,19,05,12,11.40
2004,05,19,05,13,11.40
2004,05,19,05,14,11.40
2004,05,19,05,15,11.40
2004,05,19,05,16,11.30
2004,05,19,05,17,11.30
2004,05,19,05,18,11.30
2004,05,19,05,19,11.30
2004,05,19,05,20,11.40
2004,05,19,05,21,11.40
2004,05,19,05,22,11.40
2004,05,19,05,23,11.40
2004,05,19,05,24,11.50
2004,05,19,05,25,11.50
2004,05,19,05,26,11.40
2004,05,19,05,27,11.50
2004,05,19,05,28,11.40
2004,05,19,05,29,11.40
2004,05,19,05,30,11.40
2004,05,19,05,31,11.40
2004,05,19,05,32,11.40
2004,05,19,05,33,11.40
2004,05,19,05,34,11.30
2004,05,19,05,35,11.30
2004,05,19,05,36,11.30
2004,05,19,05,37,11.30
2004,05,19,05,38,11.30
2004,05,19,05,39,11.40
2004,05,19,05,40,11.40
2004,05,19,05,41,11.40
2004,05,19,05,42,11.40
2004,05,19,05,43,11.30
2004,05,19,05,44,11.30
2004,05,19,05,45,11.20
2004,05,19,05,46,11.20
2004,05,19,05,47,11.20
2004,05,19,05,48,11.30
2004,05,19,05,49,11.30
2004,05,19,05,50,11.40
2004,05,19,05,51,11.30
2004,05,19,05,52,11.30
2004,05,19,05,53,11.30
2004,05,19,05,54,11.30
2004,05,19,05,55,11.40
2004,05,19,05,56,11.40
2004,05,19,05,57,11.40
2004,05,19,05,58,11.40
2004,05,19,05,59,11.40
2004,05,19,06,00,11.40
2004,05,19,06,01,11.40
2004,05,19,06,02,11.40
2004,05,19,06,03,11.40
2004,05,19,06,04,11.50
2004,05,19,06,05,11.50
2004,05,19,06,06,11.60
2004,05,19,06,07,11.60
2004,05,19,06,08,11.60
2004,05,19,06,09,11.60
2004,05,19,06,10,11.60
2004,05,19,06,11,11.60
2004,05,19,06,12,11.60
2004,05,19,06,13,11.60
2004,05,19,06,14,11.70
2004,05,19,06,15,11.80
2004,05,19,06,16,11.80
2004,05,19,06,17,11.80
2004,05,19,06,18,11.80
2004,05,19,06,19,11.80
2004,05,19,06,20,11.80
2004,05,19,06,21,11.70
2004,05,19,06,22,11.70
2004,05,19,06,23,11.70
2004,05,19,06,24,11.70
2004,05,19,06,25,11.80
2004,05,19,06,26,11.80
2004,05,19,06,27,11.80
2004,05,19,06,28,11.80
2004,05,19,06,29,11.80
2004,05,19,06,30,11.80
2004,05,19,06,31,11.80
2004,05,19,06,32,11.90
2004,05,19,06,33,11.90
2004,05,19,06,34,11.90
2004,05,19,06,35,12.00
2004,05,19,06,36,12.00
2004,05,19,06,37,11.90
2004,05,19,06,38,11.90
2004,05,19,06,39,11.80
2004,05,19,06,40,11.80
2004,05,19,06,41,11.90
2004,05,19,06,42,11.90
2004,05,19,06,43,12.00
2004,05,19,06,44,12.00
2004,05,19,06,45,12.10
2004,05,19,06,46,12.00
2004,05,19,06,47,12.10
2004,05,19,06,48,12.00
2004,05,19,06,49,12.10
2004,05,19,06,50,12.20
2004,05,19,06,51,12.30
2004,05,19,06,52,12.30
2004,05,19,06,53,12.30
2004,05,19,06,54,12.40
2004,05,19,06,55,12.40
2004,05,19,06,56,12.40
2004,05,19,06,57,12.40
2004,05,19,06,58,12.40
2004,05,19,06,59,12.40
2004,05,19,07,00,12.50
2004,05,19,07,01,12.50
2004,05,19,07,02,12.60
2004,05,19,07,03,12.60
2004,05,19,07,04,12.60
2004,05,19,07,05,12.60
2004,05,19,07,06,12.60
2004,05,19,07,07,12.60
2004,05,19,07,08,12.70
2004,05,19,07,09,12.80
2004,05,19,07,10,12.80
2004,05,19,07,11,12.90
2004,05,19,07,12,12.90
2004,05,19,07,13,13.00
2004,05,19,07,14,12.90
2004,05,19,07,15,12.90
2004,05,19,07,16,12.90
2004,05,19,07,17,12.80
2004,05,19,07,18,12.80
2004,05,19,07,19,12.90
2004,05,19,07,20,13.00
2004,05,19,07,21,13.00
2004,05,19,07,22,13.10
2004,05,19,07,23,13.20
2004,05,19,07,24,13.20
2004,05,19,07,25,13.20
2004,05,19,07,26,13.10
2004,05,19,07,27,13.10
2004,05,19,07,28,13.20
2004,05,19,07,29,13.30
2004,05,19,07,30,13.30
2004,05,19,07,31,13.30
2004,05,19,07,32,13.40
2004,05,19,07,33,13.30
2004,05,19,07,34,13.30
2004,05,19,07,35,13.30
2004,05,19,07,36,13.40
2004,05,19,07,37,13.50
2004,05,19,07,38,13.40
2004,05,19,07,39,13.40
2004,05,19,07,40,13.50
2004,05,19,07,41,13.60
2004,05,19,07,42,13.60
2004,05,19,07,43,13.60
2004,05,19,07,44,13.60
2004,05,19,07,45,13.50
2004,05,19,07,46,13.50
2004,05,19,07,47,13.50
2004,05,19,07,48,13.50
2004,05,19,07,49,13.40
2004,05,19,07,50,13.50
2004,05,19,07,51,13.50
2004,05,19,07,52,13.60
2004,05,19,07,53,13.60
2004,05,19,07,54,13.60
2004,05,19,07,55,13.70
2004,05,19,07,56,13.60
2004,05,19,07,57,13.50
2004,05,19,07,58,13.40
2004,05,19,07,59,13.40
2004,05,19,08,00,13.50
2004,05,19,08,01,13.40
2004,05,19,08,02,13.40
2004,05,19,08,03,13.50
2004,05,19,08,04,13.60
2004,05,19,08,05,13.60
2004,05,19,08,06,13.60
2004,05,19,08,07,13.70
2004,05,19,08,08,13.60
2004,05,19,08,09,13.60
2004,05,19,08,10,13.70
2004,05,19,08,11,13.80
2004,05,19,08,12,13.90
2004,05,19,08,13,13.90
2004,05,19,08,14,14.00
2004,05,19,08,15,14.00
2004,05,19,08,16,14.10
2004,05,19,08,17,14.00
2004,05,19,08,18,14.00
2004,05,19,08,19,13.90
2004,05,19,08,20,13.90
2004,05,19,08,21,13.90
2004,05,19,08,22,13.80
2004,05,19,08,23,13.90
2004,05,19,08,24,14.00
2004,05,19,08,25,14.10
2004,05,19,08,26,14.20
2004,05,19,08,27,14.30
2004,05,19,08,28,14.30
2004,05,19,08,29,14.20
2004,05,19,08,30,14.00
2004,05,19,08,31,13.90
2004,05,19,08,32,14.00
2004,05,19,08,33,14.00
2004,05,19,08,34,14.00
2004,05,19,08,35,14.00
2004,05,19,08,36,14.10
2004,05,19,08,37,14.10
2004,05,19,08,38,14.10
2004,05,19,08,39,14.20
2004,05,19,08,40,14.30
2004,05,19,08,41,14.30
2004,05,19,08,42,14.40
2004,05,19,08,43,14.50
2004,05,19,08,44,14.50
2004,05,19,08,45,14.60
2004,05,19,08,46,14.50
2004,05,19,08,47,14.50
2004,05,19,08,48,14.40
2004,05,19,08,49,14.30
2004,05,19,08,50,14.30
2004,05,19,08,51,14.40
2004,05,19,08,52,14.40
2004,05,19,08,53,14.60
2004,05,19,08,54,14.60
2004,05,19,08,55,14.60
2004,05,19,08,56,14.70
2004,05,19,08,57,14.80
2004,05,19,08,58,14.80
2004,05,19,08,59,14.90
2004,05,19,09,00,15.00
2004,05,19,09,01,14.90
2004,05,19,09,02,15.00
2004,05,19,09,03,14.90
2004,05,19,09,04,14.90
2004,05,19,09,05,14.80
2004,05,19,09,06,14.80
2004,05,19,09,07,14.70
2004,05,19,09,08,14.80
2004,05,19,09,09,14.90
2004,05,19,09,10,14.80
2004,05,19,09,11,14.80
2004,05,19,09,12,14.80
2004,05,19,09,13,14.60
2004,05,19,09,14,14.70
2004,05,19,09,15,14.70
2004,05,19,09,16,14.70
2004,05,19,09,17,14.80
2004,05,19,09,18,14.70
2004,05,19,09,19,14.80
2004,05,19,09,20,14.90
2004,05,19,09,21,14.80
2004,05,19,09,22,14.90
2004,05,19,09,23,15.10
2004,05,19,09,24,15.10
2004,05,19,09,25,15.20
2004,05,19,09,26,15.30
2004,05,19,09,27,15.20
2004,05,19,09,28,15.10
2004,05,19,09,29,15.10
2004,05,19,09,30,15.10
2004,05,19,09,31,15.20
2004,05,19,09,32,15.30
2004,05,19,09,33,15.40
2004,05,19,09,34,15.60
2004,05,19,09,35,15.60
2004,05,19,09,36,15.80
2004,05,19,09,37,15.80
2004,05,19,09,38,15.60
2004,05,19,09,39,15.70
2004,05,19,09,40,15.80
2004,05,19,09,41,15.70
2004,05,19,09,42,15.50
2004,05,19,09,43,15.40
2004,05,19,09,44,15.30
2004,05,19,09,45,15.20
2004,05,19,09,46,15.30
2004,05,19,09,47,15.20
2004,05,19,09,48,15.00
2004,05,19,09,49,15.10
2004,05,19,09,50,15.00
2004,05,19,09,51,15.00
2004,05,19,09,52,15.10
2004,05,19,09,53,15.10
2004,05,19,09,54,15.30
2004,05,19,09,55,15.50
2004,05,19,09,56,15.50
2004,05,19,09,57,15.60
2004,05,19,09,58,15.70
2004,05,19,09,59,15.80
2004,05,19,10,00,15.80
2004,05,19,10,01,15.90
2004,05,19,10,02,15.60
2004,05,19,10,03,15.60
2004,05,19,10,04,15.50
2004,05,19,10,05,15.40
2004,05,19,10,06,15.20
2004,05,19,10,07,15.20
2004,05,19,10,08,15.20
2004,05,19,10,09,15.10
2004,05,19,10,10,15.20
2004,05,19,10,11,15.30
2004,05,19,10,12,15.50
2004,05,19,10,13,15.50
2004,05,19,10,14,15.50
2004,05,19,10,15,15.30
2004,05,19,10,16,15.30
2004,05,19,10,17,15.20
2004,05,19,10,18,15.30
2004,05,19,10,19,15.10
2004,05,19,10,20,15.00
2004,05,19,10,21,15.00
2004,05,19,10,22,14.90
2004,05,19,10,23,15.00
2004,05,19,10,24,15.00
2004,05,19,10,25,14.90
2004,05,19,10,26,15.00
2004,05,19,10,27,15.00
2004,05,19,10,28,15.20
2004,05,19,10,29,15.30
2004,05,19,10,30,15.50
2004,05,19,10,31,15.50
2004,05,19,10,32,15.70
2004,05,19,10,33,15.80
2004,05,19,10,34,15.80
2004,05,19,10,35,15.90
2004,05,19,10,36,15.90
2004,05,19,10,37,16.00
2004,05,19,10,38,16.00
2004,05,19,10,39,15.60
2004,05,19,10,40,15.60
2004,05,19,10,41,15.60
2004,05,19,10,42,15.60
2004,05,19,10,43,15.60
2004,05,19,10,44,15.80
2004,05,19,10,45,15.70
2004,05,19,10,46,15.60
2004,05,19,10,47,15.70
2004,05,19,10,48,15.80
2004,05,19,10,49,15.90
2004,05,19,10,50,16.10
2004,05,19,10,51,16.10
2004,05,19,10,52,15.90
2004,05,19,10,53,16.00
2004,05,19,10,54,16.10
2004,05,19,10,55,15.90
2004,05,19,10,56,15.70
2004,05,19,10,57,15.70
2004,05,19,10,58,15.70
2004,05,19,10,59,15.80
2004,05,19,11,00,15.80
2004,05,19,11,01,16.00
2004,05,19,11,02,16.30
2004,05,19,11,03,16.30
2004,05,19,11,04,16.40
2004,05,19,11,05,16.40
2004,05,19,11,06,16.50
2004,05,19,11,07,16.50
2004,05,19,11,08,16.40
2004,05,19,11,09,16.40
2004,05,19,11,10,16.30
2004,05,19,11,11,16.40
2004,05,19,11,12,16.10
2004,05,19,11,13,16.10
2004,05,19,11,14,16.00
2004,05,19,11,15,16.00
2004,05,19,11,16,16.10
2004,05,19,11,17,16.00
2004,05,19,11,18,16.20
2004,05,19,11,19,16.30
2004,05,19,11,20,16.30
2004,05,19,11,21,16.40
2004,05,19,11,22,16.40
2004,05,19,11,23,16.20
2004,05,19,11,24,15.70
2004,05,19,11,25,15.60
2004,05,19,11,26,15.60
2004,05,19,11,27,15.40
2004,05,19,11,28,15.10
2004,05,19,11,29,15.20
2004,05,19,11,30,15.40
2004,05,19,11,31,15.70
2004,05,19,11,32,15.90
2004,05,19,11,33,16.20
2004,05,19,11,34,16.10
2004,05,19,11,35,16.20
2004,05,19,11,36,16.00
2004,05,19,11,37,15.90
2004,05,19,11,38,15.70
2004,05,19,11,39,15.60
2004,05,19,11,40,15.30
2004,05,19,11,41,15.30
2004,05,19,11,42,15.40
2004,05,19,11,43,15.50
2004,05,19,11,44,15.50
2004,05,19,11,45,15.60
2004,05,19,11,46,15.40
2004,05,19,11,47,15.60
2004,05,19,11,48,15.70
2004,05,19,11,49,15.50
2004,05,19,11,50,15.40
2004,05,19,11,51,15.20
2004,05,19,11,52,15.10
2004,05,19,11,53,15.00
2004,05,19,11,54,15.10
2004,05,19,11,55,15.20
2004,05,19,11,56,15.10
2004,05,19,11,57,15.30
2004,05,19,11,58,15.40
2004,05,19,11,59,15.30
2004,05,19,12,00,15.40
2004,05,19,12,01,15.50
2004,05,19,12,02,15.60
2004,05,19,12,03,15.40
2004,05,19,12,04,15.20
2004,05,19,12,05,15.10
2004,05,19,12,06,15.20
2004,05,19,12,07,15.20
2004,05,19,12,08,15.20
2004,05,19,12,09,15.10
2004,05,19,12,10,15.30
2004,05,19,12,11,15.40
2004,05,19,12,12,15.40
2004,05,19,12,13,15.30
2004,05,19,12,14,15.40
2004,05,19,12,15,15.20
2004,05,19,12,16,14.80
2004,05,19,12,17,14.70
2004,05,19,12,18,14.70
2004,05,19,12,19,14.60
2004,05,19,12,20,14.40
2004,05,19,12,21,14.30
2004,05,19,12,22,14.20
2004,05,19,12,23,14.10
2004,05,19,12,24,14.30
2004,05,19,12,25,14.30
2004,05,19,12,26,14.10
2004,05,19,12,27,14.20
2004,05,19,12,28,13.90
2004,05,19,12,29,13.80
2004,05,19,12,30,13.70
2004,05,19,12,31,13.70
2004,05,19,12,32,13.80
2004,05,19,12,33,13.70
2004,05,19,12,34,13.70
2004,05,19,12,35,13.70
2004,05,19,12,36,13.80
2004,05,19,12,37,14.00
2004,05,19,12,38,13.90
2004,05,19,12,39,14.00
2004,05,19,12,40,14.00
2004,05,19,12,41,14.00
2004,05,19,12,42,14.20
2004,05,19,12,43,14.30
2004,05,19,12,44,14.50
2004,05,19,12,45,14.60
2004,05,19,12,46,14.60
2004,05,19,12,47,14.60
2004,05,19,12,48,14.70
2004,05,19,12,49,14.60
2004,05,19,12,50,14.50
2004,05,19,12,51,14.50
2004,05,19,12,52,14.70
2004,05,19,12,53,14.80
2004,05,19,12,54,14.70
2004,05,19,12,55,14.70
2004,05,19,12,56,14.80
2004,05,19,12,57,15.00
2004,05,19,12,58,15.20
2004,05,19,12,59,15.20
2004,05,19,13,00,14.90
2004,05,19,13,01,14.80
2004,05,19,13,02,14.90
2004,05,19,13,03,15.10
2004,05,19,13,04,15.00
2004,05,19,13,05,14.90
2004,05,19,13,06,14.80
2004,05,19,13,07,14.80
2004,05,19,13,08,14.80
2004,05,19,13,09,14.80
2004,05,19,13,10,14.70
2004,05,19,13,11,14.50
2004,05,19,13,12,14.60
2004,05,19,13,13,14.40
2004,05,19,13,14,14.20
2004,05,19,13,15,14.10
2004,05,19,13,16,14.20
2004,05,19,13,17,14.30
2004,05,19,13,18,14.50
2004,05,19,13,19,14.60
2004,05,19,13,20,14.60
2004,05,19,13,21,14.70
2004,05,19,13,22,14.70
2004,05,19,13,23,14.60
2004,05,19,13,24,14.60
2004,05,19,13,25,14.60
2004,05,19,13,26,14.60
2004,05,19,13,27,14.70
2004,05,19,13,28,14.60
2004,05,19,13,29,14.50
2004,05,19,13,30,14.40
2004,05,19,13,31,14.20
2004,05,19,13,32,14.20
2004,05,19,13,33,14.20
2004,05,19,13,34,14.10
2004,05,19,13,35,14.00
2004,05,19,13,36,14.00
2004,05,19,13,37,14.10
2004,05,19,13,38,14.30
2004,05,19,13,39,14.40
2004,05,19,13,40,14.50
2004,05,19,13,41,14.80
2004,05,19,13,42,15.10
2004,05,19,13,43,15.10
2004,05,19,13,44,15.10
2004,05,19,13,45,15.00
2004,05,19,13,46,14.90
2004,05,19,13,47,15.00
2004,05,19,13,48,15.10
2004,05,19,13,49,15.30
2004,05,19,13,50,15.40
2004,05,19,13,51,15.60
2004,05,19,13,52,15.90
2004,05,19,13,53,15.90
2004,05,19,13,54,16.10
2004,05,19,13,55,16.10
2004,05,19,13,56,15.90
2004,05,19,13,57,15.90
2004,05,19,13,58,16.10
2004,05,19,13,59,16.00
2004,05,19,14,00,15.90
2004,05,19,14,01,15.60
2004,05,19,14,02,15.60
2004,05,19,14,03,15.40
2004,05,19,14,04,15.50
2004,05,19,14,05,15.50
2004,05,19,14,06,15.60
2004,05,19,14,07,15.50
2004,05,19,14,08,15.50
2004,05,19,14,09,15.30
2004,05,19,14,10,15.30
2004,05,19,14,11,15.60
2004,05,19,14,12,15.80
2004,05,19,14,13,16.00
2004,05,19,14,14,16.10
2004,05,19,14,15,16.10
2004,05,19,14,16,16.20
2004,05,19,14,17,16.00
2004,05,19,14,18,15.90
2004,05,19,14,19,16.10
2004,05,19,14,20,16.30
2004,05,19,14,21,16.50
2004,05,19,14,22,16.60
2004,05,19,14,23,16.70
2004,05,19,14,24,16.60
2004,05,19,14,25,16.70
2004,05,19,14,26,16.80
2004,05,19,14,27,16.90
2004,05,19,14,28,16.70
2004,05,19,14,29,16.50
2004,05,19,14,30,16.50
2004,05,19,14,31,16.70
2004,05,19,14,32,16.70
2004,05,19,14,33,16.40
2004,05,19,14,34,16.20
2004,05,19,14,35,16.40
2004,05,19,14,36,16.50
2004,05,19,14,37,16.40
2004,05,19,14,38,16.20
2004,05,19,14,39,16.10
2004,05,19,14,40,16.00
2004,05,19,14,41,15.90
2004,05,19,14,42,15.70
2004,05,19,14,43,15.70
2004,05,19,14,44,15.80
2004,05,19,14,45,15.90
2004,05,19,14,46,16.00
2004,05,19,14,47,16.20
2004,05,19,14,48,16.30
2004,05,19,14,49,16.30
2004,05,19,14,50,16.10
2004,05,19,14,51,15.80
2004,05,19,14,52,15.70
2004,05,19,14,53,15.70
2004,05,19,14,54,15.70
2004,05,19,14,55,15.80
2004,05,19,14,56,15.80
2004,05,19,14,57,15.90
2004,05,19,14,58,16.00
2004,05,19,14,59,16.10
2004,05,19,15,00,16.20
2004,05,19,15,01,16.40
2004,05,19,15,02,16.60
2004,05,19,15,03,16.50
2004,05,19,15,04,16.60
2004,05,19,15,05,16.60
2004,05,19,15,06,16.80
2004,05,19,15,07,16.80
2004,05,19,15,08,16.90
2004,05,19,15,09,16.90
2004,05,19,15,10,16.90
2004,05,19,15,11,16.90
2004,05,19,15,12,16.90
2004,05,19,15,13,16.70
2004,05,19,15,14,16.50
2004,05,19,15,15,16.30
2004,05,19,15,16,16.10
2004,05,19,15,17,16.10
2004,05,19,15,18,16.20
2004,05,19,15,19,16.20
2004,05,19,15,20,16.30
2004,05,19,15,21,16.30
2004,05,19,15,22,16.30
2004,05,19,15,23,16.40
2004,05,19,15,24,16.50
2004,05,19,15,25,16.70
2004,05,19,15,26,16.80
2004,05,19,15,27,16.70
2004,05,19,15,28,16.50
2004,05,19,15,29,16.60
2004,05,19,15,30,16.80
2004,05,19,15,31,17.00
2004,05,19,15,32,17.20
2004,05,19,15,33,17.30
2004,05,19,15,34,16.90
2004,05,19,15,35,16.50
2004,05,19,15,36,16.30
2004,05,19,15,37,16.20
2004,05,19,15,38,16.40
2004,05,19,15,39,16.60
2004,05,19,15,40,16.70
2004,05,19,15,41,16.90
2004,05,19,15,42,17.00
2004,05,19,15,43,17.20
2004,05,19,15,44,17.20
2004,05,19,15,45,16.90
2004,05,19,15,46,16.60
2004,05,19,15,47,16.50
2004,05,19,15,48,16.70
2004,05,19,15,49,16.40
2004,05,19,15,50,16.40
2004,05,19,15,51,16.50
2004,05,19,15,52,16.50
2004,05,19,15,53,16.40
2004,05,19,15,54,16.40
2004,05,19,15,55,16.50
2004,05,19,15,56,16.70
2004,05,19,15,57,16.80
2004,05,19,15,58,16.70
2004,05,19,15,59,16.70
2004,05,19,16,00,16.80
2004,05,19,16,01,16.80
2004,05,19,16,02,16.70
2004,05,19,16,03,16.80
2004,05,19,16,04,16.60
2004,05,19,16,05,16.70
2004,05,19,16,06,16.60
2004,05,19,16,07,16.40
2004,05,19,16,08,16.30
2004,05,19,16,09,16.40
2004,05,19,16,10,16.60
2004,05,19,16,11,16.70
2004,05,19,16,12,16.70
2004,05,19,16,13,16.60
2004,05,19,16,14,16.60
2004,05,19,16,15,16.60
2004,05,19,16,16,16.50
2004,05,19,16,17,16.40
2004,05,19,16,18,16.40
2004,05,19,16,19,16.60
2004,05,19,16,20,16.80
2004,05,19,16,21,17.00
2004,05,19,16,22,17.10
2004,05,19,16,23,17.30
2004,05,19,16,24,17.40
2004,05,19,16,25,17.10
2004,05,19,16,26,16.90
2004,05,19,16,27,16.70
2004,05,19,16,28,16.70
2004,05,19,16,29,16.80
2004,05,19,16,30,16.90
2004,05,19,16,31,17.00
2004,05,19,16,32,17.20
2004,05,19,16,33,17.30
2004,05,19,16,34,17.60
2004,05,19,16,35,17.60
2004,05,19,16,36,17.50
2004,05,19,16,37,17.40
2004,05,19,16,38,17.30
2004,05,19,16,39,17.10
2004,05,19,16,40,17.00
2004,05,19,16,41,16.90
2004,05,19,16,42,16.70
2004,05,19,16,43,16.40
2004,05,19,16,44,16.20
2004,05,19,16,45,16.10
2004,05,19,16,46,16.10
2004,05,19,16,47,16.10
2004,05,19,16,48,16.20
2004,05,19,16,49,16.20
2004,05,19,16,50,16.10
2004,05,19,16,51,16.10
2004,05,19,16,52,16.00
2004,05,19,16,53,16.10
2004,05,19,16,54,16.00
2004,05,19,16,55,16.00
2004,05,19,16,56,15.80
2004,05,19,16,57,15.70
2004,05,19,16,58,15.60
2004,05,19,16,59,15.60
2004,05,19,17,00,15.70
2004,05,19,17,01,15.70
2004,05,19,17,02,15.60
2004,05,19,17,03,15.60
2004,05,19,17,04,15.50
2004,05,19,17,05,15.50
2004,05,19,17,06,15.50
2004,05,19,17,07,15.50
2004,05,19,17,08,15.40
2004,05,19,17,09,15.50
2004,05,19,17,10,15.50
2004,05,19,17,11,15.60
2004,05,19,17,12,15.60
2004,05,19,17,13,15.60
2004,05,19,17,14,15.60
2004,05,19,17,15,15.60
2004,05,19,17,16,15.70
2004,05,19,17,17,15.70
2004,05,19,17,18,15.70
2004,05,19,17,19,15.80